| time (UTC) | temp F | wind direction | speed knots | gust knots | rain 1hr in | rain 24hr in | rain mn in | humidity % | barometer mb |
| 20260901054335 | 84 | 159 | 0.9 | 5.2 | 0.00 | 0.25 | 0.22 | 53 | 1011.6 |
| 20260901053402 | 84 | 97 | 1.7 | 4.3 | 0.00 | 0.25 | 0.22 | 53 | 1011.6 |
| 20260901052347 | 84 | 171 | 0.9 | 3.5 | 0.00 | 0.25 | 0.22 | 53 | 1011.6 |
| 20260901051335 | 84 | 146 | 2.6 | 6.1 | 0.00 | 0.25 | 0.22 | 52 | 1011.6 |
| 20260901050326 | 84 | 134 | 1.7 | 7.8 | 0.00 | 0.25 | 0.22 | 52 | 1011.6 |
| 20260901045333 | 84 | 136 | 1.7 | 5.2 | 0.00 | 0.26 | 0.22 | 51 | 1011.5 |
| 20260901044340 | 84 | 107 | 2.6 | 5.2 | 0.00 | 0.26 | 0.22 | 50 | 1011.5 |
| 20260901043328 | 85 | 143 | 0.9 | 3.5 | 0.00 | 0.26 | 0.22 | 51 | 1011.5 |
| 20260901042338 | 85 | 151 | 3.5 | 7.8 | 0.00 | 0.26 | 0.22 | 50 | 1011.4 |
| 20260901041326 | 85 | 147 | 2.6 | 4.3 | 0.00 | 0.26 | 0.22 | 50 | 1011.3 |
| 20260901040353 | 85 | 140 | 2.6 | 4.3 | 0.00 | 0.26 | 0.22 | 49 | 1011.3 |
| 20260901035339 | 86 | 196 | 2.6 | 4.3 | 0.00 | 0.26 | 0.22 | 49 | 1011.3 |
| 20260901034329 | 86 | 204 | 0.9 | 6.1 | 0.00 | 0.26 | 0.22 | 48 | 1011.3 |
| 20260901033336 | 86 | 146 | 0.9 | 4.3 | 0.00 | 0.26 | 0.22 | 47 | 1011.1 |
| 20260901032344 | 86 | 186 | 1.7 | 4.3 | 0.00 | 0.26 | 0.22 | 46 | 1011.1 |
| 20260901031328 | 86 | 173 | 0.9 | 4.3 | 0.00 | 0.26 | 0.22 | 46 | 1010.8 |
| 20260901030339 | 86 | 182 | 2.6 | 6.1 | 0.00 | 0.26 | 0.22 | 46 | 1010.7 |
| 20260901025325 | 86 | 165 | 2.6 | 5.2 | 0.00 | 0.26 | 0.22 | 46 | 1010.5 |
| 20260901024333 | 86 | 185 | 2.6 | 4.3 | 0.00 | 0.26 | 0.22 | 46 | 1010.4 |
| 20260901023341 | 86 | 150 | 0.9 | 1.7 | 0.00 | 0.26 | 0.22 | 46 | 1010.2 |
| 20260901022330 | 87 | 167 | 0.9 | 2.6 | 0.00 | 0.26 | 0.22 | 46 | 1010.2 |
| 20260901021357 | 87 | 129 | 0.0 | 0.9 | 0.00 | 0.26 | 0.22 | 45 | 1010.2 |
| 20260901020343 | 87 | 129 | 0.0 | 0.9 | 0.00 | 0.26 | 0.22 | 45 | 1010.2 |
| 20260901015331 | 87 | 119 | 0.0 | 0.9 | 0.00 | 0.26 | 0.22 | 46 | 1010.3 |
| 20260901014401 | 87 | 82 | 0.0 | 1.7 | 0.00 | 0.26 | 0.22 | 45 | 1010.2 |
| 20260901013345 | 88 | 88 | 0.9 | 1.7 | 0.00 | 0.26 | 0.22 | 44 | 1010.1 |
| 20260901012331 | 88 | 142 | 1.7 | 4.3 | 0.00 | 0.26 | 0.22 | 44 | 1010.3 |
| 20260901011337 | 88 | 86 | 0.9 | 3.5 | 0.00 | 0.26 | 0.22 | 44 | 1010.1 |
| 20260901010348 | 89 | 124 | 2.6 | 4.3 | 0.00 | 0.26 | 0.22 | 43 | 1010.4 |
| 20260901005354 | 89 | 167 | 2.6 | 6.1 | 0.00 | 0.26 | 0.22 | 42 | 1010.3 |
| 20260901004340 | 89 | 158 | 2.6 | 6.1 | 0.00 | 0.26 | 0.22 | 42 | 1010.2 |
| 20260901003328 | 90 | 53 | 3.5 | 7.0 | 0.00 | 0.26 | 0.22 | 43 | 1010.0 |
| 20260901002334 | 90 | 107 | 2.6 | 6.1 | 0.00 | 0.26 | 0.22 | 42 | 1010.3 |
| 20260901001345 | 90 | 65 | 0.9 | 5.2 | 0.00 | 0.26 | 0.22 | 42 | 1010.5 |
| 20260901000353 | 90 | 117 | 3.5 | 9.6 | 0.00 | 0.26 | 0.22 | 43 | 1010.4 |
| 20260831235337 | 90 | 86 | 2.6 | 9.6 | 0.00 | 0.26 | 0.22 | 44 | 1010.6 |
| 20260831234345 | 90 | 32 | 1.7 | 7.0 | 0.00 | 0.26 | 0.22 | 45 | 1010.6 |
| 20260831233337 | 90 | 75 | 3.5 | 6.1 | 0.00 | 0.26 | 0.22 | 45 | 1010.7 |
| 20260831232345 | 89 | 39 | 2.6 | 8.7 | 0.00 | 0.26 | 0.22 | 46 | 1010.9 |
| 20260831231331 | 89 | 92 | 4.3 | 7.8 | 0.00 | 0.26 | 0.22 | 46 | 1010.9 |
| 20260831230338 | 89 | 111 | 2.6 | 8.7 | 0.00 | 0.26 | 0.22 | 46 | 1010.9 |
| 20260831225329 | 88 | 60 | 3.5 | 10.4 | 0.00 | 0.26 | 0.22 | 47 | 1011.0 |
| 20260831224335 | 89 | 86 | 3.5 | 12.2 | 0.00 | 0.26 | 0.22 | 46 | 1011.0 |
| 20260831223342 | 89 | 165 | 5.2 | 9.6 | 0.00 | 0.26 | 0.22 | 45 | 1011.1 |
| 20260831222330 | 88 | 159 | 4.3 | 9.6 | 0.00 | 0.26 | 0.22 | 47 | 1011.3 |
| 20260831221342 | 88 | 78 | 3.5 | 8.7 | 0.00 | 0.26 | 0.22 | 48 | 1011.6 |
| 20260831220330 | 87 | 203 | 4.3 | 9.6 | 0.00 | 0.26 | 0.22 | 48 | 1011.9 |
| 20260831215337 | 87 | 167 | 5.2 | 12.2 | 0.00 | 0.26 | 0.22 | 48 | 1012.2 |
| 20260831214329 | 87 | 173 | 5.2 | 13.0 | 0.00 | 0.26 | 0.22 | 48 | 1012.4 |
| 20260831213356 | 87 | 156 | 4.3 | 12.2 | 0.00 | 0.26 | 0.22 | 49 | 1012.7 |
| 20260831212342 | 87 | 53 | 6.1 | 11.3 | 0.00 | 0.26 | 0.22 | 50 | 1013.0 |
| 20260831211331 | 86 | 175 | 4.3 | 13.0 | 0.00 | 0.26 | 0.22 | 53 | 1013.2 |
| 20260831210336 | 86 | 128 | 3.5 | 12.2 | 0.00 | 0.26 | 0.22 | 54 | 1013.3 |
| 20260831205348 | 86 | 107 | 7.8 | 14.8 | 0.00 | 0.26 | 0.22 | 52 | 1013.6 |
| 20260831204333 | 86 | 160 | 4.3 | 12.2 | 0.00 | 0.26 | 0.22 | 52 | 1013.7 |
| 20260831203340 | 86 | 163 | 7.0 | 13.0 | 0.00 | 0.26 | 0.22 | 51 | 1013.8 |
| 20260831202407 | 85 | 163 | 5.2 | 13.9 | 0.00 | 0.26 | 0.22 | 53 | 1013.9 |
| 20260831201337 | 85 | 133 | 6.1 | 10.4 | 0.00 | 0.26 | 0.22 | 54 | 1013.9 |
| 20260831200344 | 85 | 92 | 4.3 | 8.7 | 0.00 | 0.26 | 0.22 | 57 | 1014.0 |
| 20260831195329 | 85 | 145 | 6.1 | 12.2 | 0.00 | 0.26 | 0.22 | 56 | 1013.9 |
| 20260831194336 | 83 | 188 | 6.1 | 10.4 | 0.00 | 0.26 | 0.22 | 58 | 1014.0 |
| 20260831193341 | 83 | 146 | 4.3 | 11.3 | 0.00 | 0.26 | 0.22 | 59 | 1014.1 |
| 20260831192332 | 82 | 101 | 6.1 | 12.2 | 0.00 | 0.26 | 0.22 | 60 | 1014.1 |
| 20260831191339 | 82 | 98 | 7.0 | 10.4 | 0.00 | 0.26 | 0.22 | 61 | 1014.2 |
| 20260831190326 | 81 | 137 | 4.3 | 10.4 | 0.00 | 0.26 | 0.22 | 67 | 1014.4 |
| 20260831185338 | 80 | 71 | 2.6 | 9.6 | 0.00 | 0.26 | 0.22 | 71 | 1014.6 |
| 20260831184345 | 80 | 67 | 1.7 | 5.2 | 0.00 | 0.26 | 0.22 | 73 | 1014.5 |
| 20260831183331 | 79 | 66 | 2.6 | 8.7 | 0.00 | 0.26 | 0.22 | 74 | 1014.5 |
| 20260831182338 | 79 | 142 | 2.6 | 8.7 | 0.00 | 0.26 | 0.22 | 75 | 1014.4 |
| 20260831181328 | 79 | 105 | 4.3 | 9.6 | 0.00 | 0.26 | 0.22 | 74 | 1014.6 |
| 20260831180336 | 78 | 119 | 5.2 | 9.6 | 0.00 | 0.26 | 0.22 | 74 | 1014.6 |
| 20260831175340 | 78 | 171 | 3.5 | 11.3 | 0.00 | 0.26 | 0.22 | 75 | 1014.6 |
| 20260831174326 | 78 | 90 | 4.3 | 8.7 | 0.00 | 0.26 | 0.22 | 76 | 1014.6 |
| 20260831173337 | 78 | 113 | 4.3 | 9.6 | 0.00 | 0.26 | 0.22 | 77 | 1014.7 |
| 20260831172345 | 78 | 114 | 3.5 | 8.7 | 0.00 | 0.26 | 0.22 | 78 | 1014.9 |
| 20260831171331 | 77 | 65 | 1.7 | 6.1 | 0.00 | 0.26 | 0.22 | 80 | 1014.9 |
| 20260831170358 | 77 | 62 | 2.6 | 7.8 | 0.00 | 0.26 | 0.22 | 82 | 1014.7 |
| 20260831165404 | 76 | 93 | 1.7 | 9.6 | 0.00 | 0.26 | 0.22 | 82 | 1014.8 |
| 20260831164353 | 76 | 66 | 0.9 | 7.8 | 0.00 | 0.26 | 0.22 | 84 | 1014.7 |
| 20260831163339 | 75 | 114 | 1.7 | 11.3 | 0.00 | 0.26 | 0.22 | 85 | 1014.7 |
| 20260831162345 | 75 | 70 | 1.7 | 7.0 | 0.00 | 0.26 | 0.22 | 86 | 1014.5 |
| 20260831161332 | 74 | 104 | 1.7 | 7.8 | 0.02 | 0.26 | 0.22 | 85 | 1014.4 |
| 20260831160339 | 74 | 115 | 0.9 | 7.8 | 0.06 | 0.26 | 0.22 | 84 | 1014.5 |
| 20260831155350 | 74 | 71 | 2.6 | 7.0 | 0.15 | 0.26 | 0.22 | 84 | 1014.4 |
| 20260831154336 | 74 | 93 | 5.2 | 11.3 | 0.21 | 0.26 | 0.22 | 85 | 1014.4 |
| 20260831153341 | 74 | 66 | 4.3 | 9.6 | 0.21 | 0.26 | 0.22 | 85 | 1014.2 |
| 20260831152329 | 74 | 88 | 4.3 | 13.0 | 0.21 | 0.26 | 0.22 | 85 | 1014.3 |
| 20260831151339 | 75 | 56 | 7.0 | 11.3 | 0.19 | 0.24 | 0.20 | 84 | 1014.2 |
| 20260831150326 | 76 | 119 | 6.1 | 10.4 | 0.14 | 0.19 | 0.15 | 81 | 1014.5 |
| 20260831145332 | 78 | 116 | 3.5 | 10.4 | 0.06 | 0.11 | 0.07 | 78 | 1014.3 |
| 20260831144359 | 78 | 119 | 3.5 | 8.7 | 0.01 | 0.05 | 0.01 | 74 | 1013.9 |
| 20260831143348 | 79 | 142 | 4.3 | 8.7 | 0.01 | 0.05 | 0.01 | 72 | 1013.9 |
| 20260831142333 | 79 | 93 | 6.1 | 11.3 | 0.01 | 0.05 | 0.01 | 70 | 1013.1 |
| 20260831141400 | 79 | 126 | 3.5 | 9.6 | 0.01 | 0.05 | 0.01 | 71 | 1012.8 |
| 20260831140345 | 79 | 144 | 3.5 | 7.8 | 0.01 | 0.05 | 0.01 | 72 | 1012.6 |
| 20260831135351 | 79 | 172 | 2.6 | 7.0 | 0.01 | 0.05 | 0.01 | 72 | 1012.5 |
| 20260831134340 | 81 | 109 | 3.5 | 8.7 | 0.00 | 0.04 | 0.00 | 68 | 1012.3 |
| 20260831133407 | 82 | 121 | 3.5 | 8.7 | 0.00 | 0.04 | 0.00 | 63 | 1012.2 |
| 20260831132330 | 82 | 93 | 2.6 | 7.0 | 0.00 | 0.04 | 0.00 | 61 | 1011.9 |
| 20260831131336 | 82 | 113 | 2.6 | 9.6 | 0.00 | 0.04 | 0.00 | 60 | 1011.6 |
| 20260831130328 | 82 | 99 | 4.3 | 7.8 | 0.00 | 0.04 | 0.00 | 59 | 1011.2 |
| 20260831125335 | 82 | 98 | 1.7 | 7.8 | 0.00 | 0.04 | 0.00 | 58 | 1011.1 |
| 20260831124342 | 81 | 109 | 3.5 | 7.0 | 0.00 | 0.04 | 0.00 | 59 | 1011.2 |
| 20260831123328 | 81 | 116 | 1.7 | 6.1 | 0.00 | 0.04 | 0.00 | 62 | 1011.0 |
| 20260831122337 | 81 | 111 | 0.0 | 0.0 | 0.00 | 0.04 | 0.00 | 64 | 1010.9 |
| 20260831121343 | 81 | 132 | 0.0 | 0.0 | 0.00 | 0.04 | 0.00 | 64 | 1010.8 |
| 20260831120330 | 81 | 81 | 0.0 | 0.0 | 0.00 | 0.04 | 0.00 | 63 | 1010.5 |
| 20260831115336 | 81 | 81 | 0.0 | 5.2 | 0.00 | 0.04 | 0.00 | 63 | 1010.5 |
| 20260831114327 | 80 | 27 | 0.0 | 0.0 | 0.00 | 0.04 | 0.00 | 64 | 1010.3 |
| 20260831113353 | 80 | 320 | 0.0 | 0.0 | 0.00 | 0.04 | 0.00 | 63 | 1010.3 |
| 20260831112338 | 80 | 320 | 0.0 | 0.0 | 0.00 | 0.04 | 0.00 | 64 | 1010.3 |
| 20260831111344 | 80 | 320 | 0.0 | 0.0 | 0.00 | 0.04 | 0.00 | 64 | 1010.0 |
| 20260831110356 | 80 | 320 | 0.0 | 0.0 | 0.00 | 0.04 | 0.00 | 63 | 1009.7 |
| 20260831105403 | 81 | 252 | 0.0 | 0.9 | 0.00 | 0.04 | 0.00 | 62 | 1009.5 |
| 20260831104329 | 81 | 252 | 0.0 | 0.0 | 0.00 | 0.04 | 0.00 | 62 | 1009.4 |
| 20260831103336 | 81 | 252 | 0.0 | 0.9 | 0.00 | 0.04 | 0.00 | 61 | 1009.1 |
| 20260831102327 | 81 | 252 | 0.0 | 0.9 | 0.00 | 0.04 | 0.00 | 61 | 1009.1 |
| 20260831101335 | 81 | 207 | 0.0 | 0.9 | 0.00 | 0.04 | 0.00 | 61 | 1009.2 |
| 20260831100341 | 81 | 113 | 0.0 | 2.6 | 0.00 | 0.04 | 0.00 | 60 | 1009.3 |
| 20260831095327 | 81 | 163 | 0.9 | 6.1 | 0.00 | 0.04 | 0.00 | 60 | 1009.3 |
| 20260831094334 | 81 | 182 | 1.7 | 5.2 | 0.00 | 0.04 | 0.00 | 61 | 1009.4 |
| 20260831093344 | 82 | 167 | 0.9 | 7.0 | 0.00 | 0.04 | 0.00 | 61 | 1009.7 |
| 20260831092332 | 82 | 187 | 3.5 | 6.1 | 0.00 | 0.04 | 0.00 | 61 | 1009.7 |
| 20260831091339 | 82 | 144 | 2.6 | 8.7 | 0.00 | 0.04 | 0.00 | 62 | 1009.9 |
| 20260831090329 | 82 | 163 | 3.5 | 9.6 | 0.00 | 0.04 | 0.00 | 61 | 1009.7 |
| 20260831085356 | 82 | 173 | 2.6 | 6.1 | 0.00 | 0.04 | 0.00 | 60 | 1009.6 |
| 20260831084401 | 82 | 76 | 0.9 | 5.2 | 0.00 | 0.04 | 0.00 | 58 | 1009.5 |
| 20260831083328 | 82 | 156 | 3.5 | 5.2 | 0.00 | 0.04 | 0.00 | 59 | 1009.6 |
| 20260831082355 | 82 | 180 | 1.7 | 5.2 | 0.00 | 0.04 | 0.00 | 60 | 1009.7 |
| 20260831081326 | 82 | 127 | 1.7 | 4.3 | 0.00 | 0.04 | 0.00 | 59 | 1009.7 |
| 20260831080353 | 82 | 53 | 5.2 | 10.4 | 0.00 | 0.04 | 0.00 | 59 | 1009.8 |
| 20260831075338 | 81 | 340 | 4.3 | 9.6 | 0.00 | 0.04 | 0.00 | 61 | 1009.6 |
| 20260831074406 | 81 | 345 | 4.3 | 12.2 | 0.00 | 0.04 | 0.00 | 62 | 1009.6 |
| 20260831073331 | 81 | 334 | 7.0 | 14.8 | 0.00 | 0.04 | 0.00 | 64 | 1009.7 |
| 20260831072341 | 81 | 348 | 7.8 | 15.6 | 0.00 | 0.04 | 0.00 | 66 | 1009.8 |
| 20260831071347 | 81 | 360 | 6.1 | 17.4 | 0.00 | 0.04 | 0.00 | 67 | 1009.9 |
| 20260831070332 | 80 | 327 | 5.2 | 13.9 | 0.01 | 0.04 | 0.00 | 67 | 1009.9 |
| 20260831065400 | 80 | 331 | 10.4 | 20.9 | 0.01 | 0.04 | 0.04 | 68 | 1009.8 |
| 20260831064329 | 80 | 255 | 8.7 | 18.2 | 0.01 | 0.04 | 0.04 | 70 | 1009.6 |
| 20260831063335 | 80 | 24 | 9.6 | 21.7 | 0.02 | 0.04 | 0.04 | 70 | 1009.3 |
| 20260831062342 | 81 | 317 | 8.7 | 18.2 | 0.02 | 0.04 | 0.04 | 67 | 1009.6 |
| 20260831061329 | 82 | 11 | 10.4 | 20.0 | 0.03 | 0.04 | 0.04 | 66 | 1009.3 |
| 20260831060340 | 82 | 355 | 7.0 | 14.8 | 0.02 | 0.03 | 0.03 | 63 | 1009.2 |
| 20260831055327 | 82 | 42 | 0.0 | 2.6 | 0.03 | 0.03 | 0.03 | 61 | 1009.1 |